| time (UTC) | temp F | wind direction | speed MPH | gust MPH | rain 1hr in | rain 24hr in | rain mn in | humidity % | barometer mb |
| 20260506102400 | 75 | 146 | 4.0 | 7.0 | 0.00 | 0.00 | 0.00 | 96 | 1007.8 |
| 20260506101901 | 75 | 118 | 3.0 | 6.0 | 0.00 | 0.00 | 0.00 | 96 | 1007.8 |
| 20260506101628 | 75 | 134 | 3.0 | 7.0 | 0.00 | 0.00 | 0.00 | 96 | 1007.9 |
| 20260506100901 | 75 | 128 | 3.0 | 7.0 | 0.00 | 0.00 | 0.00 | 96 | 1007.8 |
| 20260506100401 | 75 | 123 | 2.0 | 4.0 | 0.00 | 0.00 | 0.00 | 96 | 1007.6 |
| 20260506095901 | 75 | 132 | 3.0 | 5.0 | 0.00 | 0.00 | 0.00 | 96 | 1007.7 |
| 20260506095401 | 75 | 139 | 2.0 | 5.0 | 0.00 | 0.00 | 0.00 | 96 | 1007.8 |
| 20260506094901 | 75 | 127 | 2.0 | 5.0 | 0.00 | 0.00 | 0.00 | 96 | 1007.7 |
| 20260506094636 | 75 | 142 | 2.0 | 5.0 | 0.00 | 0.00 | 0.00 | 96 | 1007.7 |
| 20260506093901 | 75 | 136 | 3.0 | 4.0 | 0.00 | 0.00 | 0.00 | 96 | 1007.7 |
| 20260506093401 | 75 | 128 | 3.0 | 6.0 | 0.00 | 0.00 | 0.00 | 96 | 1007.7 |
| 20260506092901 | 75 | 128 | 3.0 | 6.0 | 0.00 | 0.00 | 0.00 | 96 | 1007.7 |
| 20260506092628 | 75 | 141 | 3.0 | 7.0 | 0.00 | 0.00 | 0.00 | 96 | 1007.7 |
| 20260506091900 | 75 | 145 | 3.0 | 7.0 | 0.00 | 0.00 | 0.00 | 96 | 1007.6 |
| 20260506091401 | 75 | 0 | 4.0 | 8.0 | 0.00 | 0.00 | 0.00 | 96 | 1007.5 |
| 20260506090901 | 75 | 130 | 4.0 | 8.0 | 0.00 | 0.00 | 0.00 | 96 | 1007.5 |
| 20260506090401 | 75 | 133 | 3.0 | 6.0 | 0.00 | 0.00 | 0.00 | 96 | 1007.4 |
| 20260506090134 | 75 | 134 | 3.0 | 6.0 | 0.00 | 0.00 | 0.00 | 96 | 1007.5 |
| 20260506085403 | 75 | 128 | 4.0 | 8.0 | 0.00 | 0.00 | 0.00 | 96 | 1007.6 |
| 20260506085359 | 75 | 126 | 5.0 | 8.0 | 0.00 | 0.00 | 0.00 | 96 | 1007.6 |
| 20260506084406 | 75 | 131 | 5.0 | 9.0 | 0.00 | 0.00 | 0.00 | 96 | 1007.4 |
| 20260506083906 | 75 | 146 | 5.0 | 10.0 | 0.00 | 0.00 | 0.00 | 95 | 1007.4 |
| 20260506083407 | 75 | 130 | 5.0 | 10.0 | 0.00 | 0.00 | 0.00 | 95 | 1007.3 |
| 20260506082907 | 75 | 151 | 4.0 | 9.0 | 0.00 | 0.00 | 0.00 | 95 | 1007.6 |
| 20260506082406 | 75 | 130 | 4.0 | 8.0 | 0.00 | 0.00 | 0.00 | 95 | 1007.7 |
| 20260506081906 | 76 | 138 | 4.0 | 8.0 | 0.00 | 0.00 | 0.00 | 95 | 1007.7 |
| 20260506081406 | 76 | 143 | 5.0 | 8.0 | 0.00 | 0.00 | 0.00 | 95 | 1007.7 |
| 20260506080906 | 76 | 133 | 5.0 | 9.0 | 0.00 | 0.00 | 0.00 | 95 | 1007.8 |
| 20260506080405 | 76 | 156 | 5.0 | 9.0 | 0.00 | 0.00 | 0.00 | 95 | 1007.8 |
| 20260506073407 | 76 | 163 | 3.0 | 7.0 | 0.00 | 0.00 | 0.00 | 93 | 1008.3 |
| 20260506072906 | 76 | 173 | 4.0 | 8.0 | 0.00 | 0.00 | 0.00 | 93 | 1008.2 |
| 20260506072406 | 77 | 144 | 4.0 | 8.0 | 0.00 | 0.00 | 0.00 | 93 | 1008.2 |
| 20260506071906 | 77 | 132 | 4.0 | 8.0 | 0.00 | 0.00 | 0.00 | 92 | 1008.4 |
| 20260506071406 | 77 | 138 | 4.0 | 8.0 | 0.00 | 0.00 | 0.00 | 92 | 1008.4 |
| 20260506071130 | 77 | 151 | 4.0 | 9.0 | 0.00 | 0.00 | 0.00 | 93 | 1008.5 |
| 20260506070630 | 77 | 157 | 4.0 | 10.0 | 0.00 | 0.00 | 0.00 | 93 | 1008.7 |
| 20260506062402 | 77 | 167 | 5.0 | 8.0 | 0.00 | 0.00 | 0.00 | 93 | 1009.0 |
| 20260506061902 | 77 | 171 | 5.0 | 9.0 | 0.00 | 0.00 | 0.00 | 93 | 1008.9 |
| 20260506061402 | 77 | 146 | 5.0 | 9.0 | 0.00 | 0.00 | 0.00 | 93 | 1009.0 |
| 20260506060902 | 77 | 173 | 6.0 | 10.0 | 0.00 | 0.00 | 0.00 | 93 | 1008.9 |
| 20260506060359 | 77 | 134 | 6.0 | 13.0 | 0.00 | 0.00 | 0.00 | 93 | 1008.8 |
| 20260506051344 | 77 | 128 | 8.0 | 14.0 | 0.00 | 0.00 | 0.00 | 92 | 1008.5 |
| 20260506050845 | 77 | 148 | 7.0 | 11.0 | 0.00 | 0.00 | 0.00 | 92 | 1008.4 |
| 20260506050348 | 77 | 161 | 7.0 | 12.0 | 0.00 | 0.00 | 0.00 | 92 | 1008.4 |
| 20260506044843 | 77 | 146 | 7.0 | 13.0 | 0.00 | 0.00 | 0.00 | 91 | 1008.4 |
| 20260506044610 | 77 | 157 | 8.0 | 13.0 | 0.00 | 0.00 | 0.00 | 91 | 1008.4 |
| 20260506044111 | 77 | 171 | 8.0 | 13.0 | 0.00 | 0.00 | 0.00 | 91 | 1008.5 |
| 20260506043342 | 77 | 142 | 7.0 | 13.0 | 0.00 | 0.00 | 0.00 | 91 | 1008.5 |
| 20260506042842 | 77 | 144 | 7.0 | 13.0 | 0.00 | 0.00 | 0.00 | 91 | 1008.4 |
| 20260506042343 | 77 | 164 | 7.0 | 13.0 | 0.00 | 0.00 | 0.00 | 91 | 1008.4 |
| 20260506042113 | 77 | 148 | 8.0 | 13.0 | 0.00 | 0.00 | 0.00 | 91 | 1008.5 |
| 20260506041839 | 77 | 184 | 7.0 | 14.0 | 0.00 | 0.00 | 0.00 | 91 | 1008.4 |
| 20260506040843 | 77 | 182 | 8.0 | 14.0 | 0.00 | 0.00 | 0.00 | 91 | 1008.4 |
| 20260506040343 | 78 | 155 | 9.0 | 14.0 | 0.00 | 0.00 | 0.00 | 91 | 1008.4 |
| 20260506035842 | 78 | 139 | 9.0 | 16.0 | 0.00 | 0.00 | 0.00 | 91 | 1008.4 |
| 20260506035343 | 78 | 140 | 9.0 | 16.0 | 0.00 | 0.00 | 0.00 | 91 | 1008.4 |
| 20260506034843 | 78 | 130 | 8.0 | 15.0 | 0.00 | 0.00 | 0.00 | 91 | 1008.3 |
| 20260506034339 | 78 | 153 | 8.0 | 17.0 | 0.00 | 0.00 | 0.00 | 90 | 1008.4 |
| 20260506033838 | 78 | 161 | 8.0 | 17.0 | 0.00 | 0.00 | 0.00 | 90 | 1008.5 |
| 20260506033339 | 78 | 171 | 8.0 | 13.0 | 0.00 | 0.00 | 0.00 | 90 | 1008.4 |
| 20260506032838 | 78 | 158 | 8.0 | 14.0 | 0.00 | 0.00 | 0.00 | 90 | 1008.5 |
| 20260506032604 | 78 | 91 | 7.0 | 14.0 | 0.00 | 0.00 | 0.00 | 90 | 1008.3 |
| 20260506031838 | 78 | 138 | 8.0 | 14.0 | 0.00 | 0.00 | 0.00 | 90 | 1008.4 |
| 20260506031337 | 78 | 155 | 8.0 | 14.0 | 0.00 | 0.00 | 0.00 | 90 | 1008.4 |
| 20260506031105 | 78 | 165 | 8.0 | 14.0 | 0.00 | 0.00 | 0.00 | 90 | 1008.3 |
| 20260506030335 | 77 | 138 | 8.0 | 14.0 | 0.00 | 0.00 | 0.00 | 90 | 1008.1 |
| 20260506025835 | 78 | 152 | 7.0 | 14.0 | 0.00 | 0.00 | 0.00 | 90 | 1008.1 |
| 20260506025338 | 78 | 153 | 8.0 | 14.0 | 0.00 | 0.00 | 0.00 | 90 | 1007.9 |
| 20260506024835 | 78 | 161 | 9.0 | 17.0 | 0.00 | 0.00 | 0.00 | 90 | 1008.0 |
| 20260506024334 | 78 | 155 | 8.0 | 17.0 | 0.00 | 0.00 | 0.00 | 90 | 1007.8 |
| 20260506023834 | 78 | 168 | 7.0 | 15.0 | 0.00 | 0.00 | 0.00 | 91 | 1007.8 |
| 20260506023333 | 77 | 155 | 8.0 | 15.0 | 0.00 | 0.00 | 0.00 | 90 | 1007.7 |
| 20260506023051 | 78 | 157 | 7.0 | 14.0 | 0.00 | 0.00 | 0.00 | 90 | 1007.5 |
| 20260506023035 | 78 | 155 | 7.0 | 14.0 | 0.00 | 0.00 | 0.00 | 91 | 1007.6 |
| 20260506021829 | 77 | 148 | 8.0 | 15.0 | 0.00 | 0.00 | 0.00 | 90 | 1007.4 |
| 20260506021553 | 77 | 127 | 8.0 | 15.0 | 0.00 | 0.00 | 0.00 | 90 | 1007.3 |
| 20260506020830 | 77 | 150 | 8.0 | 14.0 | 0.00 | 0.00 | 0.00 | 90 | 1007.3 |
| 20260506020330 | 77 | 161 | 8.0 | 17.0 | 0.00 | 0.00 | 0.00 | 90 | 1007.2 |
| 20260506015831 | 77 | 130 | 8.0 | 17.0 | 0.00 | 0.00 | 0.00 | 90 | 1007.2 |
| 20260506015558 | 77 | 130 | 7.0 | 15.0 | 0.00 | 0.00 | 0.00 | 91 | 1007.1 |
| 20260506014832 | 77 | 140 | 7.0 | 12.0 | 0.00 | 0.00 | 0.00 | 91 | 1007.1 |
| 20260506014331 | 77 | 182 | 6.0 | 12.0 | 0.00 | 0.00 | 0.00 | 91 | 1006.9 |
| 20260506013830 | 77 | 148 | 6.0 | 12.0 | 0.00 | 0.00 | 0.00 | 91 | 1006.8 |
| 20260506013335 | 77 | 142 | 7.0 | 10.0 | 0.00 | 0.00 | 0.00 | 91 | 1006.6 |
| 20260506012833 | 77 | 145 | 7.0 | 12.0 | 0.00 | 0.00 | 0.00 | 90 | 1006.4 |
| 20260506012335 | 77 | 150 | 7.0 | 12.0 | 0.00 | 0.00 | 0.00 | 90 | 1006.4 |
| 20260506011833 | 78 | 144 | 7.0 | 11.0 | 0.00 | 0.00 | 0.00 | 90 | 1006.2 |
| 20260506011334 | 78 | 140 | 7.0 | 11.0 | 0.00 | 0.00 | 0.00 | 90 | 1006.3 |
| 20260506010828 | 78 | 155 | 7.0 | 14.0 | 0.00 | 0.00 | 0.00 | 89 | 1006.2 |
| 20260506010322 | 78 | 130 | 7.0 | 14.0 | 0.00 | 0.00 | 0.00 | 89 | 1006.1 |
| 20260506005823 | 78 | 125 | 8.0 | 14.0 | 0.00 | 0.00 | 0.00 | 88 | 1006.2 |
| 20260506005310 | 78 | 158 | 9.0 | 15.0 | 0.00 | 0.00 | 0.00 | 88 | 1006.1 |
| 20260506004810 | 78 | 148 | 8.0 | 16.0 | 0.00 | 0.00 | 0.00 | 87 | 1006.0 |
| 20260506004308 | 79 | 119 | 7.0 | 16.0 | 0.00 | 0.00 | 0.00 | 87 | 1006.2 |
| 20260506003807 | 79 | 138 | 7.0 | 13.0 | 0.00 | 0.00 | 0.00 | 86 | 1006.0 |
| 20260506003531 | 79 | 160 | 8.0 | 14.0 | 0.00 | 0.00 | 0.00 | 86 | 1006.1 |
| 20260506003037 | 79 | 132 | 9.0 | 21.0 | 0.00 | 0.00 | 0.00 | 86 | 1006.1 |
| 20260506002306 | 80 | 171 | 9.0 | 21.0 | 0.00 | 0.00 | 0.00 | 85 | 1006.0 |
| 20260506002035 | 80 | 146 | 8.0 | 17.0 | 0.00 | 0.00 | 0.00 | 85 | 1005.9 |
| 20260506002013 | 80 | 171 | 9.0 | 17.0 | 0.00 | 0.00 | 0.00 | 85 | 1006.0 |
| 20260506000802 | 80 | 157 | 8.0 | 15.0 | 0.00 | 0.00 | 0.00 | 85 | 1006.0 |
| 20260506000303 | 80 | 165 | 9.0 | 21.0 | 0.00 | 0.00 | 0.00 | 84 | 1006.0 |
| 20260505235802 | 80 | 142 | 9.0 | 21.0 | 0.00 | 0.00 | 0.00 | 84 | 1005.9 |
| 20260505235529 | 80 | 121 | 9.0 | 20.0 | 0.00 | 0.00 | 0.00 | 85 | 1006.0 |
| 20260505234802 | 80 | 174 | 10.0 | 20.0 | 0.00 | 0.00 | 0.00 | 84 | 1006.0 |
| 20260505234756 | 80 | 184 | 8.0 | 17.0 | 0.00 | 0.00 | 0.00 | 84 | 1006.1 |
| 20260505233805 | 80 | 167 | 7.0 | 12.0 | 0.00 | 0.00 | 0.00 | 84 | 1006.2 |
| 20260505233305 | 80 | 144 | 7.0 | 13.0 | 0.00 | 0.00 | 0.00 | 84 | 1006.2 |
| 20260505232805 | 80 | 153 | 8.0 | 15.0 | 0.00 | 0.00 | 0.00 | 84 | 1006.2 |
| 20260505232305 | 80 | 142 | 9.0 | 16.0 | 0.00 | 0.00 | 0.00 | 83 | 1006.3 |
| 20260505231802 | 80 | 190 | 8.0 | 16.0 | 0.00 | 0.00 | 0.00 | 83 | 1006.3 |
| 20260505231301 | 81 | 180 | 8.0 | 17.0 | 0.00 | 0.00 | 0.00 | 83 | 1006.1 |
| 20260505230801 | 81 | 201 | 9.0 | 17.0 | 0.00 | 0.00 | 0.00 | 83 | 1006.2 |
| 20260505230301 | 81 | 162 | 9.0 | 14.0 | 0.00 | 0.00 | 0.00 | 83 | 1006.2 |
| 20260505225801 | 81 | 126 | 8.0 | 15.0 | 0.00 | 0.00 | 0.00 | 83 | 1006.5 |
| 20260505225301 | 81 | 184 | 8.0 | 15.0 | 0.00 | 0.00 | 0.00 | 83 | 1006.5 |
| 20260505224802 | 81 | 154 | 7.0 | 15.0 | 0.00 | 0.00 | 0.00 | 82 | 1006.4 |
| 20260505224301 | 81 | 178 | 8.0 | 14.0 | 0.00 | 0.00 | 0.00 | 83 | 1006.4 |
| 20260505224036 | 81 | 98 | 9.0 | 18.0 | 0.00 | 0.00 | 0.00 | 82 | 1006.4 |
| 20260505223755 | 81 | 156 | 8.0 | 18.0 | 0.00 | 0.00 | 0.00 | 82 | 1006.3 |
| 20260505222801 | 81 | 0 | 8.0 | 19.0 | 0.00 | 0.00 | 0.00 | 82 | 1006.4 |
| 20260505222300 | 81 | 176 | 9.0 | 19.0 | 0.00 | 0.00 | 0.00 | 82 | 1006.4 |
| 20260505221804 | 81 | 195 | 8.0 | 16.0 | 0.00 | 0.00 | 0.00 | 82 | 1006.4 |
| 20260505221303 | 81 | 185 | 7.0 | 16.0 | 0.00 | 0.00 | 0.00 | 82 | 1006.4 |
| 20260505220808 | 81 | 147 | 8.0 | 20.0 | 0.00 | 0.00 | 0.00 | 82 | 1006.6 |
| 20260505220801 | 81 | 0 | 8.0 | 20.0 | 0.00 | 0.00 | 0.00 | 82 | 1006.5 |
| 20260505215800 | 81 | 193 | 7.0 | 15.0 | 0.00 | 0.00 | 0.00 | 82 | 1006.6 |
| 20260505215253 | 81 | 166 | 8.0 | 18.0 | 0.00 | 0.00 | 0.00 | 82 | 1006.8 |
| 20260505215014 | 81 | 188 | 9.0 | 17.0 | 0.00 | 0.00 | 0.00 | 82 | 1006.9 |
| 20260505214244 | 81 | 221 | 9.0 | 18.0 | 0.00 | 0.00 | 0.00 | 81 | 1007.0 |
| 20260505213744 | 81 | 213 | 9.0 | 19.0 | 0.00 | 0.00 | 0.00 | 80 | 1006.9 |
| 20260505213244 | 82 | 150 | 8.0 | 19.0 | 0.00 | 0.00 | 0.00 | 80 | 1007.0 |
| 20260505212744 | 82 | 179 | 8.0 | 15.0 | 0.00 | 0.00 | 0.00 | 80 | 1007.0 |
| 20260505212244 | 82 | 126 | 8.0 | 16.0 | 0.00 | 0.00 | 0.00 | 81 | 1007.2 |
| 20260505212015 | 81 | 142 | 8.0 | 16.0 | 0.00 | 0.00 | 0.00 | 81 | 1007.3 |
| 20260505211243 | 81 | 157 | 8.0 | 14.0 | 0.00 | 0.00 | 0.00 | 82 | 1007.3 |
| 20260505210744 | 81 | 158 | 7.0 | 14.0 | 0.00 | 0.00 | 0.00 | 81 | 1007.3 |
| 20260505210518 | 81 | 200 | 7.0 | 15.0 | 0.00 | 0.00 | 0.00 | 81 | 1007.5 |
| 20260505205744 | 81 | 187 | 7.0 | 15.0 | 0.00 | 0.00 | 0.00 | 81 | 1007.6 |
| 20260505205242 | 81 | 151 | 8.0 | 15.0 | 0.00 | 0.00 | 0.00 | 81 | 1007.8 |
| 20260505204742 | 81 | 171 | 8.0 | 17.0 | 0.00 | 0.00 | 0.00 | 81 | 1007.8 |
| 20260505204242 | 81 | 209 | 8.0 | 17.0 | 0.00 | 0.00 | 0.00 | 81 | 1007.9 |
| 20260505203742 | 81 | 196 | 8.0 | 16.0 | 0.00 | 0.00 | 0.00 | 81 | 1008.0 |
| 20260505203241 | 82 | 121 | 8.0 | 16.0 | 0.00 | 0.00 | 0.00 | 80 | 1008.0 |
| 20260505202740 | 82 | 164 | 8.0 | 17.0 | 0.00 | 0.00 | 0.00 | 79 | 1007.9 |
| 20260505202512 | 82 | 185 | 8.0 | 18.0 | 0.00 | 0.00 | 0.00 | 79 | 1007.9 |
| 20260505201740 | 82 | 141 | 8.0 | 18.0 | 0.00 | 0.00 | 0.00 | 79 | 1008.0 |
| 20260505201240 | 82 | 158 | 7.0 | 15.0 | 0.00 | 0.00 | 0.00 | 81 | 1008.2 |
| 20260505201006 | 82 | 139 | 8.0 | 16.0 | 0.00 | 0.00 | 0.00 | 81 | 1008.3 |
| 20260505200239 | 82 | 201 | 9.0 | 16.0 | 0.00 | 0.00 | 0.00 | 81 | 1008.2 |
| 20260505200232 | 82 | 166 | 8.0 | 15.0 | 0.00 | 0.00 | 0.00 | 79 | 1008.3 |
| 20260505195239 | 82 | 179 | 9.0 | 17.0 | 0.00 | 0.00 | 0.00 | 79 | 1008.4 |
| 20260505194740 | 82 | 177 | 9.0 | 18.0 | 0.00 | 0.00 | 0.00 | 79 | 1008.2 |
| 20260505194236 | 82 | 188 | 9.0 | 18.0 | 0.00 | 0.00 | 0.00 | 78 | 1008.4 |
| 20260505193736 | 82 | 213 | 9.0 | 19.0 | 0.00 | 0.00 | 0.00 | 79 | 1008.4 |
| 20260505193236 | 82 | 188 | 8.0 | 19.0 | 0.00 | 0.00 | 0.00 | 77 | 1008.4 |
| 20260505192736 | 82 | 184 | 8.0 | 18.0 | 0.00 | 0.00 | 0.00 | 79 | 1008.4 |
| 20260505192235 | 82 | 178 | 9.0 | 20.0 | 0.00 | 0.00 | 0.00 | 78 | 1008.5 |
| 20260505191736 | 82 | 163 | 10.0 | 20.0 | 0.00 | 0.00 | 0.00 | 79 | 1008.4 |
| 20260505191235 | 82 | 207 | 10.0 | 21.0 | 0.00 | 0.00 | 0.00 | 79 | 1008.5 |
| 20260505191001 | 82 | 238 | 9.0 | 21.0 | 0.00 | 0.00 | 0.00 | 79 | 1008.6 |
| 20260505190236 | 82 | 191 | 8.0 | 18.0 | 0.00 | 0.00 | 0.00 | 79 | 1008.6 |
| 20260505185736 | 82 | 234 | 8.0 | 15.0 | 0.00 | 0.00 | 0.00 | 80 | 1008.6 |
| 20260505185236 | 82 | 190 | 9.0 | 21.0 | 0.00 | 0.00 | 0.00 | 79 | 1008.6 |
| 20260505184733 | 82 | 168 | 9.0 | 21.0 | 0.00 | 0.00 | 0.00 | 79 | 1008.6 |
| 20260505184233 | 82 | 166 | 7.0 | 17.0 | 0.00 | 0.00 | 0.00 | 80 | 1008.7 |
| 20260505183733 | 82 | 209 | 6.0 | 15.0 | 0.00 | 0.00 | 0.00 | 80 | 1008.8 |
| 20260505183456 | 83 | 198 | 8.0 | 19.0 | 0.00 | 0.00 | 0.00 | 80 | 1008.9 |
| 20260505183438 | 83 | 181 | 8.0 | 19.0 | 0.00 | 0.00 | 0.00 | 78 | 1008.9 |
| 20260505182236 | 82 | 228 | 8.0 | 17.0 | 0.00 | 0.00 | 0.00 | 80 | 1008.9 |
| 20260505181735 | 82 | 140 | 8.0 | 17.0 | 0.00 | 0.00 | 0.00 | 82 | 1008.7 |
| 20260505181232 | 81 | 225 | 8.0 | 17.0 | 0.00 | 0.00 | 0.00 | 81 | 1008.8 |
| 20260505180734 | 81 | 150 | 8.0 | 14.0 | 0.00 | 0.00 | 0.00 | 81 | 1008.8 |
| 20260505180233 | 81 | 188 | 9.0 | 18.0 | 0.00 | 0.00 | 0.00 | 81 | 1008.9 |
| 20260505175733 | 81 | 188 | 10.0 | 18.0 | 0.00 | 0.00 | 0.00 | 81 | 1009.0 |
| 20260505175234 | 81 | 132 | 9.0 | 17.0 | 0.00 | 0.00 | 0.00 | 82 | 1009.0 |
| 20260505174733 | 81 | 180 | 8.0 | 20.0 | 0.00 | 0.00 | 0.00 | 82 | 1009.0 |
| 20260505174233 | 81 | 161 | 8.0 | 20.0 | 0.00 | 0.00 | 0.00 | 81 | 1009.0 |
| 20260505173734 | 81 | 113 | 9.0 | 20.0 | 0.00 | 0.00 | 0.00 | 82 | 1009.2 |
| 20260505173233 | 81 | 219 | 9.0 | 17.0 | 0.00 | 0.00 | 0.00 | 80 | 1009.2 |
| 20260505172733 | 81 | 161 | 8.0 | 14.0 | 0.00 | 0.00 | 0.00 | 81 | 1009.1 |
| 20260505172233 | 81 | 130 | 9.0 | 18.0 | 0.00 | 0.00 | 0.00 | 82 | 1009.2 |
| 20260505171733 | 81 | 144 | 9.0 | 18.0 | 0.00 | 0.00 | 0.00 | 82 | 1009.1 |
| 20260505171233 | 81 | 189 | 8.0 | 17.0 | 0.00 | 0.00 | 0.00 | 82 | 1009.2 |
| 20260505171000 | 81 | 199 | 9.0 | 17.0 | 0.00 | 0.00 | 0.00 | 83 | 1009.1 |
| 20260505170233 | 81 | 219 | 9.0 | 21.0 | 0.00 | 0.00 | 0.00 | 83 | 1009.1 |
| 20260505165956 | 81 | 171 | 9.0 | 21.0 | 0.00 | 0.00 | 0.00 | 82 | 1009.1 |
| 20260505165233 | 81 | 138 | 8.0 | 18.0 | 0.00 | 0.00 | 0.00 | 83 | 1009.0 |
| 20260505164734 | 80 | 175 | 8.0 | 18.0 | 0.00 | 0.00 | 0.00 | 83 | 1009.2 |
| 20260505164234 | 80 | 183 | 8.0 | 16.0 | 0.00 | 0.00 | 0.00 | 85 | 1009.1 |
| 20260505163733 | 80 | 181 | 9.0 | 17.0 | 0.00 | 0.00 | 0.00 | 84 | 1009.2 |
| 20260505163233 | 80 | 175 | 9.0 | 17.0 | 0.00 | 0.00 | 0.00 | 84 | 1009.3 |
| 20260505162733 | 81 | 185 | 8.0 | 18.0 | 0.00 | 0.00 | 0.00 | 84 | 1009.4 |
| 20260505162238 | 80 | 159 | 8.0 | 18.0 | 0.00 | 0.00 | 0.00 | 84 | 1009.3 |
| 20260505161733 | 80 | 163 | 8.0 | 16.0 | 0.00 | 0.00 | 0.00 | 84 | 1009.2 |
| 20260505161233 | 80 | 221 | 7.0 | 15.0 | 0.00 | 0.00 | 0.00 | 84 | 1009.3 |
| 20260505160738 | 80 | 175 | 8.0 | 16.0 | 0.00 | 0.00 | 0.00 | 85 | 1009.2 |
| 20260505160235 | 79 | 205 | 8.0 | 16.0 | 0.00 | 0.00 | 0.00 | 85 | 1009.3 |
| 20260505153233 | 79 | 128 | 9.0 | 17.0 | 0.00 | 0.00 | 0.00 | 85 | 1009.1 |
| 20260505152733 | 79 | 184 | 8.0 | 17.0 | 0.00 | 0.00 | 0.00 | 85 | 1009.0 |
| 20260505152237 | 79 | 215 | 8.0 | 17.0 | 0.00 | 0.00 | 0.00 | 85 | 1009.0 |
| 20260505151734 | 79 | 180 | 8.0 | 16.0 | 0.00 | 0.00 | 0.00 | 86 | 1009.0 |
| 20260505151235 | 79 | 194 | 7.0 | 16.0 | 0.00 | 0.00 | 0.00 | 86 | 1008.9 |
| 20260505150734 | 79 | 125 | 7.0 | 15.0 | 0.00 | 0.00 | 0.00 | 87 | 1008.9 |
| 20260505150237 | 78 | 184 | 8.0 | 17.0 | 0.00 | 0.00 | 0.00 | 87 | 1009.0 |
| 20260505140501 | 77 | 196 | 8.0 | 16.0 | 0.00 | 0.00 | 0.00 | 89 | 1008.9 |
| 20260505140240 | 77 | 196 | 8.0 | 16.0 | 0.00 | 0.00 | 0.00 | 89 | 1008.9 |
| 20260505130234 | 76 | 183 | 7.0 | 18.0 | 0.00 | 0.00 | 0.00 | 92 | 1008.6 |
| 20260505124734 | 75 | 166 | 6.0 | 14.0 | 0.00 | 0.00 | 0.00 | 92 | 1008.5 |
| 20260505124234 | 75 | 176 | 6.0 | 13.0 | 0.00 | 0.00 | 0.00 | 92 | 1008.4 |
| 20260505124005 | 75 | 196 | 6.0 | 13.0 | 0.00 | 0.00 | 0.00 | 93 | 1008.4 |
| 20260505123234 | 75 | 182 | 7.0 | 12.0 | 0.00 | 0.00 | 0.00 | 93 | 1008.4 |
| 20260505122734 | 75 | 192 | 6.0 | 13.0 | 0.00 | 0.00 | 0.00 | 93 | 1008.2 |
| 20260505122459 | 74 | 171 | 5.0 | 13.0 | 0.00 | 0.00 | 0.00 | 93 | 1008.1 |
| 20260505121734 | 74 | 178 | 5.0 | 11.0 | 0.00 | 0.00 | 0.00 | 93 | 1008.1 |
| 20260505121235 | 74 | 158 | 5.0 | 11.0 | 0.00 | 0.00 | 0.00 | 94 | 1008.2 |
| 20260505120734 | 74 | 162 | 5.0 | 11.0 | 0.00 | 0.00 | 0.00 | 93 | 1008.2 |
| 20260505120235 | 74 | 192 | 5.0 | 11.0 | 0.00 | 0.00 | 0.00 | 93 | 1008.1 |
| 20260505115735 | 74 | 183 | 5.0 | 11.0 | 0.00 | 0.00 | 0.00 | 93 | 1008.1 |
| 20260505115234 | 74 | 211 | 5.0 | 10.0 | 0.00 | 0.00 | 0.00 | 94 | 1008.1 |
| 20260505114734 | 74 | 147 | 4.0 | 9.0 | 0.00 | 0.00 | 0.00 | 94 | 1008.1 |
| 20260505114234 | 74 | 168 | 4.0 | 8.0 | 0.00 | 0.00 | 0.00 | 94 | 1008.3 |
| 20260505114005 | 74 | 160 | 4.0 | 9.0 | 0.00 | 0.00 | 0.00 | 93 | 1008.2 |
| 20260505113735 | 74 | 165 | 4.0 | 9.0 | 0.00 | 0.00 | 0.00 | 93 | 1008.3 |
| 20260505112734 | 74 | 175 | 4.0 | 9.0 | 0.00 | 0.00 | 0.00 | 93 | 1008.2 |
| 20260505112234 | 74 | 198 | 4.0 | 9.0 | 0.00 | 0.00 | 0.00 | 93 | 1008.2 |
| 20260505112001 | 74 | 195 | 4.0 | 9.0 | 0.00 | 0.00 | 0.00 | 93 | 1008.2 |
| 20260505111234 | 74 | 181 | 5.0 | 10.0 | 0.00 | 0.00 | 0.00 | 93 | 1008.3 |
| 20260505110734 | 74 | 192 | 5.0 | 10.0 | 0.00 | 0.00 | 0.00 | 93 | 1008.1 |
| 20260505110235 | 74 | 221 | 4.0 | 9.0 | 0.00 | 0.00 | 0.00 | 92 | 1008.1 |
| 20260505110225 | 74 | 165 | 4.0 | 9.0 | 0.00 | 0.00 | 0.00 | 92 | 1008.3 |